When you browse on this site, cookies collect data to enhance your experience and personalize the content and advertising you see.
Visit our Privacy Policy to learn more. By continuing to use the site, you agree to this use of cookies and data.
  • In Hungary
  • List of Countries
  • For 7 days
  • Water Temperature
  • Satellite Maps
  • Weather Map
  • News
  • Weather Widgets
  • user-avatar
    Login

    Hourly Weather Battikaloa

    Today, 12 December, Wednesday

    Time Temperature Precipitation Wind Pressure Humidity
    00:00 +25°C° 0 mm 4 mps 758 mmHg 86%
    01:00 +25°C° 0 mm 4 mps 758 mmHg 87%
    02:00 +23°C° 0 mm 4 mps 758 mmHg 88%
    03:00 +23°C° 0 mm 4 mps 758 mmHg 88%
    04:00 +23°C° 0 mm 4 mps 758 mmHg 88%
    05:00 +23°C° 0 mm 4 mps 758 mmHg 88%
    06:00 +25°C° 0 mm 4 mps 758 mmHg 85%
    07:00 +26°C° 0 mm 4 mps 759 mmHg 81%
    08:00 +27°C° 0 mm 4 mps 759 mmHg 78%
    09:00 +28°C° 0 mm 4 mps 759 mmHg 73%
    10:00 +30°C° 0 mm 4 mps 759 mmHg 67%
    11:00 +32°C° 0 mm 5 mps 759 mmHg 62%
    12:00 +32°C° 0 mm 5 mps 758 mmHg 61%
    13:00 +32°C° 0 mm 5 mps 757 mmHg 61%
    14:00 +32°C° 0 mm 5 mps 757 mmHg 61%
    15:00 +30°C° 0 mm 5 mps 757 mmHg 66%
    16:00 +29°C° 0 mm 5 mps 757 mmHg 72%
    17:00 +28°C° 0 mm 5 mps 757 mmHg 78%
    18:00 +28°C° 0 mm 5 mps 757 mmHg 81%
    19:00 +27°C° 0 mm 5 mps 758 mmHg 84%
    20:00 +26°C° 0 mm 5 mps 759 mmHg 87%
    21:00 +26°C° 0 mm 5 mps 759 mmHg 88%
    22:00 +26°C° 0 mm 4 mps 759 mmHg 89%
    23:00 +26°C° 0 mm 4 mps 759 mmHg 90%

    Tomorrow, 13 December, Thursday

    Time Temperature Precipitation Wind Pressure Humidity
    00:00 +25°C° 0 mm 4 mps 758 mmHg 91%
    01:00 +25°C° 0 mm 4 mps 758 mmHg 91%
    02:00 +25°C° 0 mm 4 mps 757 mmHg 92%
    03:00 +25°C° 0 mm 5 mps 757 mmHg 92%
    04:00 +25°C° 0 mm 5 mps 757 mmHg 92%
    05:00 +23°C° 0 mm 5 mps 757 mmHg 92%
    06:00 +25°C° 0.1 mm 5 mps 758 mmHg 89%
    07:00 +26°C° 0.1 mm 5 mps 758 mmHg 85%
    08:00 +27°C° 0.1 mm 5 mps 759 mmHg 82%
    09:00 +28°C° 0.2 mm 5 mps 759 mmHg 79%
    10:00 +29°C° 0.2 mm 6 mps 758 mmHg 77%
    11:00 +32°C° 0.2 mm 6 mps 758 mmHg 74%
    12:00 +32°C° 0.9 mm 6 mps 757 mmHg 75%
    13:00 +30°C° 0.9 mm 6 mps 757 mmHg 76%
    14:00 +30°C° 0.9 mm 7 mps 756 mmHg 78%
    15:00 +30°C° 0.9 mm 7 mps 756 mmHg 81%
    16:00 +29°C° 0.9 mm 6 mps 756 mmHg 85%
    17:00 +28°C° 0.9 mm 6 mps 756 mmHg 88%
    18:00 +28°C° 0.5 mm 6 mps 757 mmHg 89%
    19:00 +27°C° 0.5 mm 6 mps 758 mmHg 90%
    20:00 +27°C° 0.5 mm 6 mps 758 mmHg 91%
    21:00 +27°C° 0.6 mm 6 mps 758 mmHg 92%
    22:00 +27°C° 0.6 mm 5 mps 758 mmHg 92%
    23:00 +27°C° 0.6 mm 5 mps 758 mmHg 93%

    Day after tomorrow, 14 December, Friday

    Time Temperature Precipitation Wind Pressure Humidity
    00:00 +27°C° 0.5 mm 5 mps 757 mmHg 93%
    01:00 +26°C° 0.5 mm 5 mps 756 mmHg 93%
    02:00 +26°C° 0.5 mm 5 mps 756 mmHg 93%
    03:00 +26°C° 0.6 mm 5 mps 756 mmHg 93%
    04:00 +26°C° 0.6 mm 5 mps 756 mmHg 93%
    05:00 +26°C° 0.6 mm 5 mps 756 mmHg 93%
    06:00 +27°C° 0.4 mm 6 mps 756 mmHg 92%
    07:00 +27°C° 0.4 mm 6 mps 757 mmHg 90%
    08:00 +27°C° 0.4 mm 6 mps 758 mmHg 88%
    09:00 +28°C° 0.6 mm 7 mps 757 mmHg 86%
    10:00 +28°C° 0.6 mm 7 mps 757 mmHg 84%
    11:00 +29°C° 0.6 mm 8 mps 757 mmHg 82%
    12:00 +29°C° 0.3 mm 8 mps 756 mmHg 82%
    13:00 +29°C° 0.3 mm 9 mps 755 mmHg 82%
    14:00 +29°C° 0.3 mm 9 mps 753 mmHg 82%
    15:00 +28°C° 0 mm 9 mps 754 mmHg 83%
    16:00 +28°C° 0 mm 9 mps 754 mmHg 84%
    17:00 +28°C° 0 mm 9 mps 754 mmHg 85%
    18:00 +27°C° 0 mm 9 mps 755 mmHg 85%
    19:00 +27°C° 0 mm 9 mps 755 mmHg 85%
    20:00 +27°C° 0 mm 9 mps 755 mmHg 86%
    21:00 +27°C° 0.2 mm 9 mps 755 mmHg 85%
    22:00 +27°C° 0.2 mm 9 mps 755 mmHg 85%
    23:00 +27°C° 0.2 mm 9 mps 755 mmHg 85%

    15 December, Saturday

    Time Temperature Precipitation Wind Pressure Humidity
    00:00 +27°C° 0.4 mm 9 mps 755 mmHg 85%
    01:00 +27°C° 0.4 mm 9 mps 754 mmHg 85%
    02:00 +27°C° 0.4 mm 8 mps 754 mmHg 86%
    03:00 +27°C° 0.2 mm 9 mps 754 mmHg 85%
    04:00 +27°C° 0.2 mm 9 mps 754 mmHg 85%
    05:00 +27°C° 0.2 mm 9 mps 754 mmHg 85%
    06:00 +27°C° 0 mm 9 mps 755 mmHg 84%
    07:00 +28°C° 0 mm 9 mps 756 mmHg 83%
    08:00 +28°C° 0 mm 9 mps 757 mmHg 81%
    09:00 +29°C° 0 mm 8 mps 757 mmHg 79%
    10:00 +29°C° 0 mm 8 mps 757 mmHg 77%
    11:00 +31°C° 0 mm 8 mps 756 mmHg 75%
    12:00 +31°C° 0 mm 8 mps 756 mmHg 74%
    13:00 +30°C° 0 mm 7 mps 755 mmHg 72%
    14:00 +32°C° 0 mm 7 mps 755 mmHg 71%
    15:00 +30°C° 0 mm 7 mps 755 mmHg 74%
    16:00 +29°C° 0 mm 6 mps 755 mmHg 77%
    17:00 +29°C° 0 mm 6 mps 756 mmHg 80%
    18:00 +28°C° 0 mm 6 mps 757 mmHg 82%
    19:00 +27°C° 0 mm 6 mps 758 mmHg 84%
    20:00 +27°C° 0 mm 6 mps 758 mmHg 85%
    21:00 +27°C° 0 mm 6 mps 758 mmHg 86%
    22:00 +26°C° 0 mm 6 mps 758 mmHg 86%
    23:00 +26°C° 0 mm 6 mps 758 mmHg 87%

    16 December, Sunday

    Time Temperature Precipitation Wind Pressure Humidity
    00:00 +26°C° 0 mm 6 mps 758 mmHg 88%
    01:00 +26°C° 0 mm 5 mps 757 mmHg 89%
    02:00 +25°C° 0 mm 5 mps 756 mmHg 90%
    03:00 +25°C° 0 mm 5 mps 757 mmHg 90%
    04:00 +25°C° 0 mm 5 mps 757 mmHg 90%
    05:00 +25°C° 0 mm 5 mps 757 mmHg 91%
    06:00 +26°C° 0 mm 5 mps 758 mmHg 87%
    07:00 +27°C° 0 mm 5 mps 758 mmHg 83%
    08:00 +28°C° 0 mm 5 mps 759 mmHg 79%
    09:00 +29°C° 0 mm 5 mps 759 mmHg 72%
    10:00 +32°C° 0 mm 4 mps 758 mmHg 66%
    11:00 +33°C° 0 mm 4 mps 758 mmHg 59%
    12:00 +33°C° 0 mm 4 mps 757 mmHg 60%
    13:00 +33°C° 0 mm 4 mps 757 mmHg 61%
    14:00 +33°C° 0 mm 4 mps 756 mmHg 61%
    15:00 +32°C° 0 mm 4 mps 756 mmHg 66%
    16:00 +32°C° 0 mm 4 mps 756 mmHg 71%
    17:00 +30°C° 0 mm 4 mps 756 mmHg 76%
    18:00 +29°C° 0 mm 3 mps 757 mmHg 79%
    19:00 +28°C° 0 mm 3 mps 757 mmHg 81%
    20:00 +27°C° 0 mm 3 mps 758 mmHg 84%
    21:00 +27°C° 0 mm 3 mps 758 mmHg 85%
    22:00 +27°C° 0 mm 3 mps 758 mmHg 87%
    23:00 +26°C° 0 mm 2 mps 758 mmHg 89%

    17 December, Monday

    Time Temperature Precipitation Wind Pressure Humidity
    00:00 +26°C° 0 mm 2 mps 758 mmHg 90%
    01:00 +26°C° 0 mm 2 mps 758 mmHg 91%
    02:00 +26°C° 0 mm 2 mps 757 mmHg 92%
    03:00 +25°C° 0 mm 2 mps 757 mmHg 92%
    04:00 +25°C° 0 mm 2 mps 758 mmHg 93%
    05:00 +25°C° 0 mm 2 mps 758 mmHg 94%
    06:00 +26°C° 0 mm 2 mps 758 mmHg 90%
    07:00 +27°C° 0 mm 2 mps 759 mmHg 86%
    08:00 +28°C° 0 mm 2 mps 759 mmHg 81%
    09:00 +29°C° 0 mm 2 mps 759 mmHg 76%
    10:00 +30°C° 0 mm 2 mps 759 mmHg 71%
    11:00 +31°C° 0 mm 3 mps 758 mmHg 66%
    12:00 +33°C° 0 mm 3 mps 758 mmHg 65%
    13:00 +33°C° 0 mm 3 mps 757 mmHg 65%
    14:00 +33°C° 0 mm 3 mps 756 mmHg 65%
    15:00 +31°C° 0 mm 3 mps 756 mmHg 69%
    16:00 +30°C° 0 mm 3 mps 757 mmHg 74%
    17:00 +29°C° 0 mm 3 mps 757 mmHg 79%
    18:00 +28°C° 0 mm 3 mps 757 mmHg 81%
    19:00 +27°C° 0 mm 3 mps 758 mmHg 84%
    20:00 +26°C° 0 mm 3 mps 758 mmHg 87%
    21:00 +26°C° 0 mm 3 mps 758 mmHg 88%
    22:00 +26°C° 0 mm 3 mps 758 mmHg 89%
    23:00 +26°C° 0 mm 3 mps 758 mmHg 90%
    Show more